Location: Palomar Mountain Lodge
(33.3110°N, 116.8495°W)
Time: 05:38:57
(UTC-07:00)

Tiangong - Pass Details

Date: 13 February 2026
Orbit: 381 x 391 km, 41.5° (Epoch: 8 March)

Event Time Altitude Azimuth Distance (km) Brightness Sun altitude
Rises 18:27:11 0° 278° (W) 2,245 3.4 -12.4°
Reaches altitude 10° 18:29:32 10° 295° (WNW) 1,391 1.6 -12.9°
Maximum altitude 18:32:04 22° 348° (NNW) 890 -0.3 -13.4°
Enters shadow 18:33:43 15° 30° (NNE) 1,130 -0.1 -13.8°
